Temperature
20 20 19 20 25 28 28 28 28 28 27 26 26 26 26 25 25 24 21 20 20 19 19 19 19 19 19 18 18 18 18 18 18 18 18 18 19 19 19 19 18 18 18 18 18 18 18 18 18
20 20 20 24 28 28 28 28 28 27 27 26 25 25 25 24 22 21 20 20 19 19 19 18 19 19 19 18 18 18 18 18 18 18 18 18 18 18 19 18 18 18 18 18 18 18 18 18 18
20 20 23 28 29 28 28 28 28 27 26 26 25 25 24 23 22 21 20 20 20 19 19 19 19 19 19 19 18 18 18 18 18 18 18 18 18 18 18 18 18 18 18 18 18 18 18 18 18
20 22 26 29 29 29 28 28 28 28 27 26 26 25 23 22 21 21 20 20 20 20 19 19 19 19 19 19 19 18 18 18 18 18 18 18 18 18 18 18 18 18 18 18 18 18 18 18 18
22 26 29 29 29 29 29 28 28 28 27 26 26 25 23 21 21 20 20 20 20 20 19 19 19 19 19 18 18 18 18 18 18 18 18 18 18 18 18 18 18 18 18 18 18 18 18 18 18
26 29 30 29 29 29 29 28 28 28 27 26 26 25 23 21 21 20 20 20 20 20 19 19 19 19 19 18 18 18 18 18 18 18 18 18 18 18 18 18 18 18 18 18 18 18 18 18 18
28 30 30 30 29 29 29 28 28 28 27 26 26 25 23 21 21 20 20 20 20 20 20 19 19 19 19 19 19 18 18 18 19 18 18 18 18 18 18 18 18 18 18 18 18 18 18 18 18
27 30 30 30 30 29 29 28 27 27 27 25 25 26 24 21 21 20 20 20 20 20 19 19 19 18 18 18 19 19 18 18 19 18 18 18 18 18 18 18 18 18 18 18 18 18 18 18 18
27 31 30 30 30 30 29 28 27 26 26 25 25 24 23 21 21 21 20 20 20 19 19 19 19 19 19 18 18 18 18 18 18 18 18 18 18 18 18 18 18 18 18 18 18 18 18 18 18
29 31 31 31 31 30 29 29 28 27 27 26 25 23 22 21 21 21 21 21 20 20 19 19 19 19 19 18 18 18 18 18 18 18 18 18 18 18 18 18 18 18 18 18 18 18 18 18 18
30 30 31 31 30 30 30 29 28 28 28 27 26 24 22 22 22 21 21 21 20 20 19 19 19 19 19 19 19 18 18 18 18 18 18 18 18 18 18 18 18 18 18 18 18 18 18 18 18
30 30 30 30 29 29 29 29 28 28 27 26 25 24 23 22 22 22 21 21 20 20 19 19 19 19 19 19 19 18 18 18 18 18 18 18 18 18 18 18 18 18 18 18 18 18 18 18 18
31 31 30 30 29 29 29 29 28 28 26 26 24 23 23 23 23 22 21 21 20 20 19 19 19 19 19 19 19 19 18 18 18 18 18 18 18 18 18 18 18 18 18 18 18 18 18 18 18
31 30 30 30 30 29 30 29 29 27 26 25 25 24 24 23 23 22 21 21 21 20 20 19 19 19 19 19 19 19 18 19 18 18 18 18 18 18 18 18 18 18 18 18 18 18 18 18 18
30 31 32 31 31 30 30 30 29 27 26 26 25 24 24 23 23 22 22 21 21 20 20 20 20 19 19 19 19 19 18 18 18 18 18 18 18 18 18 18 18 18 18 18 18 18 18 18 18
32 32 32 32 31 30 31 30 30 27 27 27 26 25 24 23 23 22 22 21 21 21 20 20 20 19 19 19 19 19 19 19 18 18 18 18 18 18 18 18 18 18 18 18 18 18 18 18 18
32 32 32 32 32 31 31 31 30 28 28 27 26 25 25 24 23 23 22 22 21 21 21 20 20 20 19 19 19 19 19 19 18 18 18 18 18 18 18 18 18 18 18 18 18 18 18 18 18
32 32 32 32 32 31 31 31 30 28 28 28 27 26 25 25 24 23 22 22 21 21 21 21 20 20 20 19 19 19 19 19 19 19 19 19 18 18 18 18 18 18 18 18 18 18 18 18 18
32 32 32 32 32 31 31 31 31 29 28 28 28 27 26 25 24 23 22 22 21 21 21 21 21 20 20 20 19 19 19 19 19 19 19 19 19 18 18 18 18 18 18 18 18 18 18 18 18
32 32 32 32 31 31 31 31 31 30 29 28 28 27 27 26 25 23 23 22 22 21 21 21 21 21 20 20 20 19 19 19 19 19 19 19 18 18 18 18 18 18 18 18 18 18 18 18 18
32 32 32 31 31 32 31 31 30 30 29 28 27 27 27 26 25 24 23 23 22 22 22 21 21 21 21 20 20 19 19 19 19 19 19 19 19 19 18 18 18 18 18 18 18 18 18 18 18
32 32 32 31 31 32 31 31 31 30 30 29 28 27 27 26 26 25 24 23 22 22 22 22 21 21 21 20 20 19 19 19 19 19 19 19 19 19 18 18 19 18 18 18 18 18 18 18 18
32 32 32 32 32 32 32 31 31 31 30 30 29 28 27 26 26 25 24 23 23 22 22 22 21 21 21 20 20 20 19 19 19 19 19 19 18 18 18 18 19 18 18 18 18 18 18 18 17
31 31 31 32 32 31 31 31 31 31 30 30 29 28 27 26 25 25 24 23 23 22 22 21 21 21 21 21 20 20 19 19 19 19 19 18 18 18 18 18 19 18 18 18 18 18 18 18 17
32 32 31 31 31 31 31 31 30 31 30 30 29 28 27 26 25 24 24 23 23 22 21 21 21 21 21 20 20 20 20 19 19 19 19 18 18 18 18 18 18 18 18 18 18 18 18 17 17
32 32 31 30 30 31 31 31 31 30 29 28 28 27 26 25 25 24 23 23 22 22 21 21 21 21 21 20 20 20 20 19 19 19 18 18 18 18 18 18 18 18 18 18 18 17 17 17 17
32 32 33 32 31 31 31 31 30 30 29 29 28 27 26 25 24 24 23 23 22 22 21 21 21 21 21 20 20 20 20 20 19 19 19 18 18 18 18 18 18 18 18 18 18 17 17 17 17
32 32 32 31 29 30 31 30 31 29 29 29 28 27 26 25 24 23 23 22 22 22 21 21 20 21 20 20 20 20 20 20 19 19 19 19 18 18 18 18 18 18 18 18 18 17 17 17 17
31 31 31 31 30 30 30 30 31 29 29 29 28 26 25 25 24 23 23 22 22 22 21 21 20 20 20 20 20 19 19 19 19 19 19 19 18 18 18 18 18 18 18 18 18 17 17 17 17
31 31 31 30 29 30 30 30 30 29 29 28 27 26 25 24 24 23 22 22 21 21 21 21 20 20 20 20 19 19 19 19 19 18 18 19 19 18 18 18 18 18 17 17 17 17 17 16 16
Wind_Speed
10 7 4 4 4 3 10 8 8 7 6 6 5 4 6 7 6 5 4 5 6 7 8 9 7 7 7 8 8 8 9 9 9 9 9 9 9 9 10 10 10 10 10 10 9 10 10 10 9
6 4 4 4 2 7 10 8 9 8 7 5 5 5 6 7 7 6 5 6 7 7 8 8 8 7 8 8 8 8 8 8 8 8 8 8 8 8 9 9 9 8 8 8 8 9 9 9 9
5 5 4 1 7 9 9 8 8 7 6 4 4 5 5 5 5 5 6 7 7 7 7 9 8 8 8 8 8 8 8 8 8 7 7 7 8 8 8 8 8 7 7 7 7 8 7 8 8
4 4 3 4 11 10 8 7 6 6 6 5 4 5 6 6 4 6 8 8 8 7 7 10 8 8 8 7 7 7 7 7 7 7 6 6 7 7 7 7 7 6 6 6 6 7 7 6 6
4 3 3 8 11 9 8 6 5 5 5 5 5 6 7 6 7 8 8 7 8 8 8 10 8 8 7 7 6 6 6 6 6 6 6 6 6 6 6 6 7 6 5 5 5 5 6 6 5
3 1 5 10 11 8 7 5 4 6 6 6 5 6 6 6 7 7 7 7 7 7 7 10 9 8 7 6 6 5 6 6 6 5 5 5 5 5 5 5 6 6 6 5 5 5 5 5 5
3 4 7 9 9 9 7 6 5 6 6 6 4 5 6 7 7 7 7 6 7 7 7 7 8 9 8 7 6 6 5 5 5 4 3 3 4 5 5 4 5 5 6 6 6 5 5 5 5
4 2 7 8 9 9 7 6 6 6 7 6 3 4 6 7 7 7 7 6 6 6 5 5 6 6 6 8 8 6 5 4 4 3 2 2 4 6 6 6 5 5 6 7 7 6 6 5 5
3 2 8 9 8 7 6 5 6 5 7 6 5 6 8 10 9 8 6 6 5 4 4 4 4 4 4 5 7 7 7 5 5 5 4 4 3 4 5 4 4 4 6 6 7 7 7 7 8
2 6 9 7 6 5 5 5 5 4 6 6 7 8 10 10 9 8 6 6 6 5 4 3 3 3 3 4 5 4 4 4 3 2 2 2 2 1 2 5 4 4 5 6 7 8 9 9 5
3 5 6 5 4 4 4 4 3 4 5 4 6 8 10 9 8 7 6 5 5 4 4 3 3 2 2 3 3 2 2 2 3 2 2 2 2 2 2 2 4 4 5 4 5 7 5 3 2
2 4 4 4 3 2 3 3 3 3 5 5 6 8 9 9 8 7 6 5 5 4 4 3 4 3 2 2 2 2 2 2 1 2 1 1 1 0 0 0 1 1 2 2 2 2 2 2 3
2 3 3 2 2 2 2 3 3 4 4 6 7 8 8 7 7 6 6 6 5 5 4 4 3 3 3 2 2 2 1 1 2 1 1 0 1 0 1 1 1 1 0 1 1 1 2 3 4
3 2 1 1 2 3 3 4 3 4 6 7 7 8 7 6 6 6 5 5 5 5 5 5 5 4 4 3 2 1 1 1 1 1 1 1 1 0 0 0 1 1 1 1 1 1 2 2 3
2 1 2 3 2 2 2 4 4 6 6 7 7 7 7 6 6 5 5 5 5 4 4 5 5 5 5 4 3 2 2 1 1 1 1 1 1 0 1 1 1 1 1 1 1 1 1 2 3
3 2 3 4 2 2 3 5 6 6 7 6 6 6 6 6 5 5 5 5 4 4 5 5 4 5 5 4 3 2 2 1 1 1 1 1 1 1 2 1 1 1 1 1 0 1 2 2 2
2 2 4 4 2 1 1 3 6 6 6 6 6 6 6 6 6 6 5 5 5 5 5 5 5 5 5 5 4 3 2 2 2 1 1 1 1 2 2 1 2 2 1 1 1 1 2 2 2
3 3 3 4 2 1 1 2 5 5 6 6 6 6 6 6 6 6 6 5 5 5 5 6 6 5 5 5 4 3 3 3 2 1 1 1 1 2 2 1 1 2 1 1 1 1 2 2 2
4 4 3 3 2 1 1 2 2 5 5 6 6 7 7 6 6 6 6 6 6 6 6 6 6 6 5 4 4 4 3 3 2 1 1 2 2 2 2 2 1 1 1 2 2 2 2 2 2
5 4 2 2 2 1 1 1 2 3 5 5 5 6 6 6 6 7 7 6 7 7 7 7 7 6 6 5 3 3 2 2 1 1 1 2 2 2 2 1 2 1 1 2 2 2 3 2 1
5 4 4 3 2 3 3 2 2 3 3 3 4 5 5 6 6 7 7 7 7 8 8 7 7 7 7 6 4 3 3 3 2 2 1 1 2 2 2 2 2 2 3 2 2 3 3 3 2
4 3 4 5 5 1 3 2 3 3 3 4 4 5 6 5 6 7 8 8 8 8 8 7 7 7 6 6 5 4 3 3 2 1 1 1 1 1 2 2 2 3 3 2 2 2 3 3 3
4 3 5 6 6 5 3 4 2 3 2 3 4 4 5 5 5 6 7 7 7 7 7 7 7 6 6 6 5 5 4 3 2 2 2 2 2 2 2 2 2 2 3 2 2 3 3 3 3
4 5 6 7 7 5 3 5 1 1 1 1 3 3 3 4 4 5 5 6 6 6 6 6 6 6 6 6 6 5 4 4 3 3 3 3 2 2 2 2 2 2 2 2 3 3 3 3 3
8 8 6 7 6 3 1 4 1 2 2 1 1 3 3 4 4 4 5 5 6 6 6 6 6 6 6 6 6 5 5 5 5 4 3 3 2 2 2 2 2 2 2 3 3 3 3 3 3
8 10 8 7 7 4 4 3 1 3 2 2 2 3 4 4 4 4 4 5 5 6 6 6 6 6 6 6 5 5 5 4 4 4 3 3 3 2 2 2 2 3 3 3 3 3 3 3 3
7 8 8 9 8 8 4 2 2 2 2 2 3 4 4 4 4 4 4 4 5 5 6 6 6 6 5 5 5 4 4 3 3 2 3 3 2 2 2 3 3 3 3 3 4 3 3 3 4
7 7 7 8 8 9 7 6 3 2 1 1 2 3 3 4 4 4 3 4 4 4 4 4 5 5 5 5 5 4 5 4 3 3 3 2 3 2 3 3 3 3 3 3 4 4 3 4 4
7 7 7 7 8 10 9 4 2 1 1 1 1 2 3 3 4 4 3 3 4 4 4 4 4 4 4 5 4 4 4 4 4 3 3 3 3 3 4 4 4 4 4 4 4 4 4 4 4
7 8 9 8 8 9 11 4 3 2 2 1 2 2 3 3 3 4 3 3 4 4 4 4 4 4 4 5 5 5 4 4 4 3 4 3 4 4 4 4 4 5 5 5 5 5 4 4 4
Wind_Direction
194 201 220 238 227 87 64 61 60 61 59 57 53 43 42 32 22 59 84 107 112 118 122 130 127 125 126 124 120 119 119 119 122 125 127 127 128 130 134 141 146 149 152 154 152 152 153 152 151
186 197 234 244 20 73 64 57 60 54 67 76 68 54 53 56 52 86 103 114 125 122 126 124 126 129 127 127 126 124 121 120 123 125 128 132 133 134 137 140 142 149 155 157 156 155 157 160 164
193 223 263 347 52 56 63 60 65 73 73 66 66 53 43 56 73 85 99 125 128 123 123 116 127 129 127 127 126 126 124 123 126 127 131 137 141 139 137 141 144 149 151 154 157 160 163 169 174
219 227 231 63 67 59 58 67 73 83 76 66 74 78 73 64 73 92 112 124 127 124 122 116 127 129 126 126 125 124 122 123 128 129 130 133 136 140 142 147 153 156 155 157 159 161 163 169 171
247 260 92 75 68 63 64 63 63 64 66 74 77 87 83 76 87 106 118 123 124 120 117 120 125 129 130 132 131 131 128 125 129 127 129 132 138 145 152 159 164 163 159 159 161 167 170 174 175
256 271 62 69 70 67 64 61 61 64 76 85 90 96 87 97 107 116 117 116 115 115 117 120 130 136 136 136 133 131 128 124 124 127 129 129 136 145 152 157 169 170 171 172 169 173 176 179 184
322 35 60 65 72 71 64 57 52 64 72 71 81 95 108 112 116 123 119 118 112 114 116 122 133 141 148 143 136 131 127 125 125 127 125 129 147 157 160 169 179 182 180 180 180 184 189 190 191
312 3 66 63 63 67 77 73 61 63 72 78 75 88 115 130 134 132 126 120 120 119 120 124 125 133 149 148 143 141 140 138 139 141 145 175 184 181 181 183 181 185 187 190 189 195 204 206 202
284 42 58 51 53 70 93 90 83 79 95 92 77 77 112 132 139 136 133 131 129 126 126 129 131 143 151 147 143 159 159 160 173 167 179 215 197 173 173 155 163 193 200 203 200 202 213 218 208
343 44 52 42 41 67 89 85 96 106 103 102 104 105 124 140 145 143 142 141 138 141 145 142 140 150 147 147 148 161 158 152 170 153 179 201 174 190 181 144 176 195 204 203 201 208 216 227 218
26 34 38 43 50 68 89 89 97 90 80 90 120 132 141 148 150 149 147 144 140 153 152 152 144 154 156 152 154 141 147 145 161 155 176 177 199 174 180 169 180 189 200 204 189 208 215 215 239
39 30 22 36 56 73 76 86 86 70 63 84 118 137 148 154 156 154 155 159 154 160 163 158 151 157 167 162 155 162 159 147 142 142 208 165 167 179 133 190 211 198 185 195 200 207 203 221 242
40 31 35 49 82 93 103 88 81 85 91 108 126 142 154 156 155 154 158 164 167 171 173 166 170 164 167 172 209 160 162 161 152 167 162 239 204 182 79 23 323 291 243 207 222 229 226 236 242
6 1 22 78 103 129 121 110 109 102 121 129 141 151 160 159 160 157 161 166 178 181 174 170 180 172 177 183 188 193 196 185 234 170 162 239 218 118 5 249 291 302 303 321 285 258 243 251 260
273 255 121 97 113 137 155 119 110 128 144 145 152 157 161 166 171 173 171 176 181 182 174 175 181 178 182 190 196 192 208 197 200 154 188 242 251 172 261 276 271 309 307 284 259 271 263 252 255
232 220 86 79 69 141 237 77 111 146 162 159 163 163 168 173 183 184 181 182 182 183 176 182 187 178 182 188 200 203 215 201 205 205 202 208 269 276 280 299 302 306 274 263 272 282 291 285 283
198 28 47 79 78 109 267 61 120 159 173 171 175 176 179 177 184 187 189 188 187 186 181 183 191 186 183 184 191 200 196 213 222 221 244 206 232 255 269 314 331 284 287 297 292 336 296 292 296
2 1 15 36 72 291 318 58 129 170 190 185 185 185 187 188 188 187 191 191 188 185 188 188 188 189 187 186 187 197 200 204 207 213 233 253 245 247 276 257 289 294 309 314 329 309 294 289 295
315 314 344 27 46 307 348 35 125 166 191 195 194 192 194 195 189 185 188 189 188 189 189 192 192 183 191 195 200 198 198 202 199 200 201 229 254 261 266 288 282 292 316 316 307 298 280 297 308
276 285 322 38 45 298 331 13 132 168 192 199 199 201 201 195 191 188 189 190 194 194 196 196 192 188 193 192 200 208 221 214 194 186 147 242 247 259 250 280 280 277 288 293 297 289 301 310 309
267 291 315 328 294 209 274 170 147 165 184 190 208 215 209 204 201 195 196 198 197 197 201 202 198 193 195 189 191 188 191 203 193 196 200 237 248 247 278 272 275 273 257 252 262 276 286 305 306
268 321 295 286 273 262 288 310 118 159 175 188 204 210 210 203 201 196 195 198 202 201 196 197 194 195 191 190 199 200 201 204 207 219 220 222 220 237 234 246 252 259 265 269 265 275 286 286 293
295 297 276 271 265 263 248 288 104 138 178 182 192 203 203 201 197 192 193 193 197 195 191 189 186 189 192 197 200 208 214 215 216 206 195 229 210 222 230 238 255 259 265 278 294 297 291 289 294
238 241 240 242 253 256 284 281 307 91 293 207 168 173 175 178 181 182 182 181 184 183 184 183 176 178 187 194 202 207 211 218 227 224 222 223 218 222 228 238 259 267 285 284 278 281 278 291 297
231 250 251 243 243 261 200 270 313 44 50 37 115 148 151 153 160 164 167 169 173 174 177 178 177 180 184 190 199 206 210 212 220 232 225 244 243 230 236 258 260 274 276 282 279 267 286 279 275
239 256 269 279 279 271 203 263 66 82 84 90 106 128 126 131 135 146 157 161 165 169 174 176 177 181 183 188 194 201 205 214 220 228 249 241 257 260 265 254 256 265 271 274 271 271 265 263 267
244 252 273 271 273 276 258 233 203 158 148 123 124 126 125 126 125 135 149 158 165 167 172 178 179 180 180 185 188 189 196 214 224 219 234 245 245 248 243 251 256 259 261 267 267 265 274 272 270
259 258 250 260 273 273 261 249 257 201 192 144 144 138 134 134 128 127 136 149 159 165 170 171 174 178 180 183 194 185 190 204 218 231 242 261 257 255 256 253 257 260 259 256 258 262 264 266 269
220 232 253 263 270 277 280 277 50 175 189 174 138 153 151 147 135 129 132 141 152 155 160 171 182 183 186 194 196 203 197 200 215 226 243 250 258 256 250 251 251 255 257 258 256 267 269 264 269
251 248 244 254 260 267 279 274 101 147 170 158 138 144 156 152 136 128 124 136 149 154 162 171 188 194 194 192 198 202 206 208 214 221 240 251 255 255 257 258 255 255 258 259 258 263 268 264 263
Height
1508 1508 1509 1510 1504 1498 1501 1500 1497 1499 1501 1505 1506 1505 1505 1507 1509 1517 1519 1517 1518 1518 1518 1517 1518 1518 1519 1519 1520 1520 1521 1522 1523 1524 1524 1525 1527 1528 1529 1531 1532 1533 1535 1536 1537 1538 1539 1540 1541
1510 1510 1511 1508 1498 1503 1506 1499 1500 1502 1506 1507 1508 1508 1508 1511 1514 1517 1518 1518 1519 1519 1520 1520 1519 1520 1520 1521 1522 1522 1523 1524 1524 1525 1526 1527 1528 1530 1531 1532 1533 1534 1535 1537 1538 1539 1540 1541 1541
1510 1510 1511 1500 1499 1504 1506 1501 1503 1505 1507 1508 1509 1510 1512 1515 1517 1518 1519 1519 1520 1521 1521 1521 1520 1521 1522 1523 1523 1524 1524 1525 1526 1527 1528 1529 1530 1531 1532 1533 1534 1535 1536 1537 1539 1539 1540 1541 1542
1512 1512 1508 1499 1502 1502 1502 1502 1504 1505 1508 1509 1510 1512 1516 1519 1519 1520 1520 1521 1522 1522 1523 1522 1522 1523 1523 1524 1525 1525 1526 1526 1527 1528 1529 1530 1531 1532 1533 1534 1535 1536 1537 1538 1539 1540 1540 1541 1542
1512 1508 1499 1500 1502 1501 1502 1504 1505 1505 1508 1510 1511 1513 1517 1521 1521 1521 1522 1523 1523 1524 1524 1524 1523 1524 1525 1526 1526 1526 1527 1528 1528 1529 1530 1531 1532 1532 1533 1534 1535 1536 1537 1538 1539 1540 1541 1541 1542
1511 1502 1500 1504 1504 1503 1504 1506 1506 1506 1509 1511 1512 1514 1520 1522 1522 1523 1523 1524 1525 1525 1526 1525 1525 1525 1526 1527 1527 1528 1528 1529 1529 1530 1531 1532 1533 1533 1534 1534 1535 1536 1537 1538 1539 1540 1540 1541 1542
1509 1500 1501 1501 1503 1504 1506 1508 1507 1508 1510 1513 1514 1515 1521 1523 1524 1524 1525 1526 1526 1527 1527 1528 1528 1527 1528 1528 1529 1529 1529 1530 1531 1531 1532 1533 1533 1534 1534 1535 1535 1536 1536 1537 1538 1539 1540 1541 1541
1509 1501 1499 1500 1502 1505 1507 1509 1510 1510 1513 1516 1516 1516 1520 1524 1524 1525 1526 1527 1527 1528 1528 1529 1529 1530 1530 1530 1530 1530 1531 1531 1532 1532 1533 1533 1534 1534 1535 1535 1535 1535 1536 1537 1537 1538 1539 1540 1540
1509 1501 1502 1501 1502 1504 1507 1509 1512 1513 1515 1517 1518 1519 1522 1524 1525 1526 1527 1528 1528 1529 1529 1530 1530 1531 1531 1532 1531 1532 1532 1532 1532 1533 1533 1534 1535 1536 1536 1536 1535 1536 1536 1536 1537 1537 1538 1539 1539
1507 1502 1503 1503 1502 1503 1507 1509 1511 1512 1513 1516 1519 1521 1523 1524 1525 1526 1527 1528 1529 1529 1530 1531 1531 1531 1532 1532 1532 1533 1534 1533 1533 1534 1534 1535 1535 1535 1536 1535 1535 1535 1535 1535 1536 1536 1537 1538 1539
1507 1504 1503 1504 1505 1506 1507 1509 1511 1511 1512 1515 1518 1521 1523 1525 1526 1527 1528 1529 1530 1530 1531 1531 1531 1531 1532 1533 1533 1534 1534 1534 1534 1534 1534 1534 1535 1535 1536 1536 1536 1536 1536 1536 1536 1536 1537 1537 1538
1508 1506 1506 1506 1507 1507 1508 1510 1511 1512 1514 1517 1519 1521 1523 1524 1526 1527 1528 1529 1530 1531 1531 1532 1532 1531 1532 1533 1534 1534 1535 1535 1535 1535 1535 1535 1535 1535 1536 1535 1536 1536 1536 1535 1536 1535 1535 1536 1536
1507 1506 1507 1507 1507 1508 1509 1510 1511 1514 1516 1518 1520 1522 1523 1524 1526 1527 1528 1529 1530 1531 1531 1532 1532 1532 1532 1532 1533 1535 1535 1535 1535 1535 1535 1535 1535 1535 1536 1535 1535 1536 1535 1535 1535 1535 1534 1534 1535
1507 1507 1506 1506 1507 1508 1508 1510 1511 1514 1516 1518 1520 1521 1523 1524 1526 1527 1528 1529 1530 1531 1532 1532 1532 1532 1532 1533 1533 1534 1535 1535 1535 1535 1535 1535 1535 1535 1535 1535 1535 1535 1535 1535 1534 1534 1534 1534 1534
1508 1505 1503 1504 1505 1507 1507 1508 1510 1514 1516 1518 1520 1521 1523 1524 1525 1526 1528 1529 1529 1530 1531 1531 1532 1532 1532 1533 1534 1535 1535 1536 1536 1535 1535 1535 1535 1535 1535 1535 1535 1535 1535 1534 1533 1533 1533 1533 1533
1503 1500 1502 1502 1503 1505 1507 1509 1509 1513 1515 1516 1518 1520 1522 1524 1525 1526 1527 1528 1529 1530 1530 1531 1532 1532 1532 1533 1533 1535 1535 1535 1535 1535 1535 1535 1535 1535 1535 1535 1535 1534 1534 1534 1533 1533 1533 1532 1532
1500 1503 1503 1502 1502 1503 1504 1505 1508 1512 1513 1515 1517 1519 1521 1523 1524 1525 1526 1527 1528 1529 1529 1530 1531 1532 1532 1533 1533 1534 1534 1534 1535 1535 1535 1535 1535 1534 1535 1535 1534 1534 1534 1534 1533 1532 1532 1531 1530
1507 1504 1503 1503 1501 1502 1502 1502 1505 1510 1511 1513 1515 1518 1520 1521 1523 1524 1526 1527 1527 1528 1528 1529 1530 1531 1531 1532 1533 1533 1534 1534 1534 1535 1534 1534 1534 1534 1534 1534 1534 1534 1534 1533 1532 1531 1531 1530 1530
1504 1504 1504 1502 1500 1502 1502 1502 1503 1507 1509 1511 1513 1515 1518 1520 1522 1524 1525 1526 1526 1527 1528 1528 1529 1530 1530 1532 1533 1533 1534 1534 1534 1534 1534 1534 1534 1534 1534 1534 1533 1533 1533 1532 1532 1531 1531 1530 1529
1503 1505 1502 1500 1500 1502 1502 1501 1501 1505 1507 1509 1511 1513 1515 1518 1520 1522 1523 1524 1525 1526 1526 1527 1528 1529 1530 1530 1531 1532 1532 1533 1533 1533 1533 1533 1533 1533 1534 1532 1533 1532 1532 1531 1530 1530 1530 1530 1528
1502 1502 1503 1503 1500 1498 1500 1502 1501 1503 1506 1508 1510 1512 1514 1516 1518 1520 1522 1523 1524 1524 1525 1526 1527 1528 1528 1529 1530 1531 1531 1531 1532 1532 1532 1532 1532 1532 1531 1531 1531 1531 1531 1530 1529 1529 1529 1529 1528
1503 1499 1500 1501 1502 1501 1501 1509 1501 1499 1502 1505 1508 1510 1511 1514 1516 1518 1519 1521 1522 1523 1524 1525 1525 1526 1527 1528 1529 1530 1530 1531 1531 1531 1531 1531 1530 1530 1530 1530 1529 1529 1529 1529 1529 1528 1528 1527 1527
1501 1499 1499 1498 1499 1500 1498 1504 1500 1497 1501 1502 1505 1507 1509 1512 1514 1515 1517 1518 1520 1521 1522 1523 1524 1524 1526 1526 1527 1528 1529 1529 1530 1530 1529 1529 1529 1529 1529 1528 1528 1527 1527 1527 1527 1526 1526 1526 1525
1499 1500 1498 1497 1495 1509 1502 1506 1506 1496 1499 1498 1502 1505 1508 1510 1512 1514 1515 1517 1518 1519 1520 1521 1522 1522 1523 1524 1525 1525 1526 1527 1528 1528 1528 1528 1528 1528 1527 1527 1526 1526 1526 1525 1525 1524 1524 1524 1523
1498 1502 1510 1513 1511 1509 1498 1503 1503 1494 1496 1499 1501 1504 1507 1509 1511 1512 1513 1515 1516 1517 1518 1519 1519 1520 1522 1522 1523 1523 1523 1524 1525 1526 1526 1526 1527 1527 1526 1526 1525 1525 1524 1524 1523 1523 1522 1522 1521
1495 1496 1512 1522 1516 1504 1500 1503 1496 1494 1498 1500 1502 1504 1506 1508 1509 1511 1512 1513 1514 1515 1516 1517 1517 1518 1520 1520 1521 1522 1522 1523 1524 1523 1524 1524 1524 1524 1524 1524 1523 1523 1523 1523 1522 1521 1520 1519 1519
1494 1493 1489 1498 1502 1508 1498 1497 1494 1494 1497 1500 1502 1503 1505 1507 1509 1510 1511 1512 1513 1514 1515 1516 1516 1517 1517 1518 1519 1520 1520 1521 1522 1521 1522 1522 1522 1522 1522 1522 1521 1521 1521 1520 1519 1519 1518 1517 1517
1491 1489 1493 1500 1515 1515 1504 1499 1496 1496 1496 1497 1500 1503 1505 1507 1508 1509 1510 1511 1512 1513 1514 1514 1515 1515 1516 1517 1518 1518 1518 1519 1520 1520 1520 1520 1520 1519 1519 1519 1519 1519 1518 1518 1517 1517 1516 1515 1514
1493 1493 1494 1494 1499 1508 1511 1501 1487 1492 1495 1496 1499 1502 1504 1506 1507 1508 1509 1510 1511 1512 1513 1513 1514 1514 1515 1515 1516 1516 1517 1517 1518 1518 1518 1518 1518 1517 1517 1517 1516 1516 1516 1515 1514 1514 1513 1513 1512
1488 1490 1491 1502 1505 1500 1501 1499 1486 1490 1494 1496 1499 1502 1504 1506 1507 1508 1509 1509 1510 1511 1511 1512 1512 1513 1513 1514 1514 1514 1515 1515 1516 1516 1516 1516 1516 1516 1515 1514 1514 1514 1513 1512 1511 1511 1511 1510 1509